contact:dominique.lefevre@mio.osupytheas.fr, maurice.libes@osupytheas.fr, didier.mallarino@osupytheas.fr
Project:EMSO http://www.emso-fr.org/EMSO-France
Depth: 2436.0 m
Title:EMSO Ligure Ouest : Data MII capteur MICROCAT
DateTime_Computer,Latitude,Longitude,Temperature,Conductivity,Pressure,DateTime_Instrument
DateTime_Computer,Latitude,Longitude,degC,S m-1,dbar,DateTime_Instrument
2023-11-19T00:00:50Z,42.805,6.029,13.3035,4.60135,2470.763,2023-11-19T02:03:18Z
2023-11-19T00:03:54Z,42.805,6.029,13.3040,4.60132,2470.754,2023-11-19T02:06:21Z
2023-11-19T00:06:57Z,42.805,6.029,13.3039,4.60134,2470.754,2023-11-19T02:09:24Z
2023-11-19T00:10:00Z,42.805,6.029,13.3040,4.60140,2470.763,2023-11-19T02:12:27Z
2023-11-19T00:13:03Z,42.805,6.029,13.3039,4.60173,2470.763,2023-11-19T02:15:30Z
2023-11-19T00:16:06Z,42.805,6.029,13.3061,4.60154,2470.74,2023-11-19T02:18:33Z
2023-11-19T00:19:09Z,42.805,6.029,13.3043,4.60146,2470.763,2023-11-19T02:21:36Z
2023-11-19T00:22:12Z,42.805,6.029,13.3062,4.60137,2470.777,2023-11-19T02:24:40Z
2023-11-19T00:25:15Z,42.805,6.029,13.3051,4.60145,2470.74,2023-11-19T02:27:43Z
2023-11-19T00:28:18Z,42.805,6.029,13.3041,4.60152,2470.74,2023-11-19T02:30:46Z
2023-11-19T00:31:21Z,42.805,6.029,13.3037,4.60147,2470.74,2023-11-19T02:33:49Z
2023-11-19T00:34:24Z,42.805,6.029,13.3039,4.60144,2470.754,2023-11-19T02:36:52Z
2023-11-19T00:37:27Z,42.805,6.029,13.3051,4.60156,2470.763,2023-11-19T02:39:55Z
2023-11-19T00:40:31Z,42.805,6.029,13.3048,4.60158,2470.754,2023-11-19T02:42:58Z
2023-11-19T00:43:34Z,42.805,6.029,13.3049,4.60155,2470.763,2023-11-19T02:46:01Z
2023-11-19T00:46:37Z,42.805,6.029,13.3036,4.60165,2470.74,2023-11-19T02:49:04Z
2023-11-19T00:49:40Z,42.805,6.029,13.3039,4.60165,2470.73,2023-11-19T02:52:07Z
2023-11-19T00:52:43Z,42.805,6.029,13.3039,4.60139,2470.754,2023-11-19T02:55:10Z
2023-11-19T00:55:46Z,42.805,6.029,13.3043,4.60152,2470.754,2023-11-19T02:58:13Z
2023-11-19T00:58:49Z,42.805,6.029,13.3054,4.60161,2470.74,2023-11-19T03:01:17Z
2023-11-19T01:01:52Z,42.805,6.029,13.3052,4.60167,2470.763,2023-11-19T03:04:20Z
2023-11-19T01:04:55Z,42.805,6.029,13.3051,4.60165,2470.754,2023-11-19T03:07:23Z
2023-11-19T01:07:58Z,42.805,6.029,13.3043,4.60142,2470.74,2023-11-19T03:10:26Z
2023-11-19T01:11:01Z,42.805,6.029,13.3064,4.60169,2470.74,2023-11-19T03:13:29Z
2023-11-19T01:14:04Z,42.805,6.029,13.3049,4.60178,2470.74,2023-11-19T03:16:32Z
2023-11-19T01:17:07Z,42.805,6.029,13.3073,4.60184,2470.74,2023-11-19T03:19:35Z
2023-11-19T01:20:11Z,42.805,6.029,13.3041,4.60144,2470.717,2023-11-19T03:22:38Z
2023-11-19T01:23:14Z,42.805,6.029,13.3058,4.60148,2470.693,2023-11-19T03:25:41Z
2023-11-19T01:26:17Z,42.805,6.029,13.3039,4.60127,2470.74,2023-11-19T03:28:44Z
2023-11-19T01:29:20Z,42.805,6.029,13.3048,4.60145,2470.73,2023-11-19T03:31:47Z
2023-11-19T01:32:23Z,42.805,6.029,13.3041,4.60154,2470.73,2023-11-19T03:34:50Z
2023-11-19T01:35:26Z,42.805,6.029,13.3048,4.60140,2470.717,2023-11-19T03:37:53Z
2023-11-19T01:38:29Z,42.805,6.029,13.3046,4.60145,2470.717,2023-11-19T03:40:57Z
2023-11-19T01:41:32Z,42.805,6.029,13.3041,4.60151,2470.703,2023-11-19T03:44:00Z
2023-11-19T01:44:35Z,42.805,6.029,13.3041,4.60157,2470.693,2023-11-19T03:47:03Z
2023-11-19T01:47:38Z,42.805,6.029,13.3040,4.60135,2470.717,2023-11-19T03:50:06Z
2023-11-19T01:50:41Z,42.805,6.029,13.3056,4.60175,2470.717,2023-11-19T03:53:09Z
2023-11-19T01:53:44Z,42.805,6.029,13.3043,4.60146,2470.717,2023-11-19T03:56:12Z
2023-11-19T01:56:48Z,42.805,6.029,13.3045,4.60157,2470.74,2023-11-19T03:59:15Z
2023-11-19T01:59:51Z,42.805,6.029,13.3040,4.60147,2470.717,2023-11-19T04:02:18Z
2023-11-19T02:02:54Z,42.805,6.029,13.3052,4.60145,2470.693,2023-11-19T04:05:21Z
2023-11-19T02:05:57Z,42.805,6.029,13.3045,4.60162,2470.693,2023-11-19T04:08:24Z
2023-11-19T02:09:00Z,42.805,6.029,13.3053,4.60174,2470.717,2023-11-19T04:11:27Z
2023-11-19T02:12:03Z,42.805,6.029,13.3064,4.60161,2470.707,2023-11-19T04:14:30Z
2023-11-19T02:15:06Z,42.805,6.029,13.3059,4.60152,2470.679,2023-11-19T04:17:34Z
2023-11-19T02:18:09Z,42.805,6.029,13.3048,4.60192,2470.693,2023-11-19T04:20:37Z
2023-11-19T02:21:12Z,42.805,6.029,13.3056,4.60157,2470.693,2023-11-19T04:23:40Z
2023-11-19T02:24:15Z,42.805,6.029,13.3054,4.60193,2470.693,2023-11-19T04:26:43Z
2023-11-19T02:27:18Z,42.805,6.029,13.3051,4.60235,2470.693,2023-11-19T04:29:46Z
2023-11-19T02:30:21Z,42.805,6.029,13.3062,4.60178,2470.693,2023-11-19T04:32:49Z
2023-11-19T02:33:25Z,42.805,6.029,13.3061,4.60191,2470.693,2023-11-19T04:35:52Z
2023-11-19T02:36:28Z,42.805,6.029,13.3067,4.60169,2470.67,2023-11-19T04:38:55Z
2023-11-19T02:39:31Z,42.805,6.029,13.3061,4.60185,2470.661,2023-11-19T04:41:58Z
2023-11-19T02:42:34Z,42.805,6.029,13.3054,4.60176,2470.693,2023-11-19T04:45:01Z
2023-11-19T02:45:37Z,42.805,6.029,13.3063,4.60200,2470.693,2023-11-19T04:48:04Z
2023-11-19T02:48:40Z,42.805,6.029,13.3064,4.60155,2470.684,2023-11-19T04:51:07Z
2023-11-19T02:51:43Z,42.805,6.029,13.3066,4.60149,2470.717,2023-11-19T04:54:10Z
2023-11-19T02:54:46Z,42.805,6.029,13.3054,4.60208,2470.67,2023-11-19T04:57:14Z
2023-11-19T02:57:49Z,42.805,6.029,13.3061,4.60161,2470.67,2023-11-19T05:00:17Z
2023-11-19T03:00:52Z,42.805,6.029,13.3061,4.60165,2470.707,2023-11-19T05:03:20Z
2023-11-19T03:03:55Z,42.805,6.029,13.3063,4.60195,2470.693,2023-11-19T05:06:23Z
2023-11-19T03:06:58Z,42.805,6.029,13.3054,4.60215,2470.693,2023-11-19T05:09:26Z
2023-11-19T03:10:01Z,42.805,6.029,13.3058,4.60147,2470.67,2023-11-19T05:12:29Z
2023-11-19T03:13:05Z,42.805,6.029,13.3069,4.60188,2470.67,2023-11-19T05:15:32Z
2023-11-19T03:16:08Z,42.805,6.029,13.3069,4.60181,2470.707,2023-11-19T05:18:35Z
2023-11-19T03:19:11Z,42.805,6.029,13.3058,4.60168,2470.707,2023-11-19T05:21:38Z
2023-11-19T03:22:14Z,42.805,6.029,13.3063,4.60181,2470.684,2023-11-19T05:24:41Z
2023-11-19T03:25:17Z,42.805,6.029,13.3069,4.60188,2470.67,2023-11-19T05:27:44Z
2023-11-19T03:28:20Z,42.805,6.029,13.3066,4.60203,2470.67,2023-11-19T05:30:47Z
2023-11-19T03:31:23Z,42.805,6.029,13.3053,4.60180,2470.646,2023-11-19T05:33:51Z
2023-11-19T03:34:26Z,42.805,6.029,13.3048,4.60190,2470.717,2023-11-19T05:36:54Z
2023-11-19T03:37:29Z,42.805,6.029,13.3061,4.60205,2470.661,2023-11-19T05:39:57Z
2023-11-19T03:40:32Z,42.805,6.029,13.3061,4.60211,2470.67,2023-11-19T05:43:00Z
2023-11-19T03:43:35Z,42.805,6.029,13.3064,4.60135,2470.67,2023-11-19T05:46:03Z
2023-11-19T03:46:38Z,42.805,6.029,13.3056,4.60147,2470.646,2023-11-19T05:49:06Z
2023-11-19T03:49:42Z,42.805,6.029,13.3069,4.60178,2470.684,2023-11-19T05:52:09Z
2023-11-19T03:52:45Z,42.805,6.029,13.3067,4.60127,2470.67,2023-11-19T05:55:12Z
2023-11-19T03:55:48Z,42.805,6.029,13.3070,4.60150,2470.684,2023-11-19T05:58:15Z
2023-11-19T03:58:51Z,42.805,6.029,13.3085,4.60155,2470.693,2023-11-19T06:01:18Z
2023-11-19T04:01:54Z,42.805,6.029,13.3070,4.60137,2470.693,2023-11-19T06:04:21Z
2023-11-19T04:04:57Z,42.805,6.029,13.3062,4.60175,2470.693,2023-11-19T06:07:24Z
2023-11-19T04:08:00Z,42.805,6.029,13.3082,4.60152,2470.684,2023-11-19T06:10:28Z
2023-11-19T04:11:03Z,42.805,6.029,13.3096,4.60128,2470.684,2023-11-19T06:13:31Z
2023-11-19T04:14:06Z,42.805,6.029,13.3085,4.60144,2470.67,2023-11-19T06:16:34Z
2023-11-19T04:17:09Z,42.805,6.029,13.3069,4.60123,2470.646,2023-11-19T06:19:37Z
2023-11-19T04:20:12Z,42.805,6.029,13.3031,4.60114,2470.67,2023-11-19T06:22:40Z
2023-11-19T04:23:15Z,42.805,6.029,13.3054,4.60132,2470.693,2023-11-19T06:25:43Z
2023-11-19T04:26:18Z,42.805,6.029,13.3054,4.60150,2470.67,2023-11-19T06:28:46Z
2023-11-19T04:29:22Z,42.805,6.029,13.3039,4.60108,2470.67,2023-11-19T06:31:49Z
2023-11-19T04:32:25Z,42.805,6.029,13.3038,4.60104,2470.684,2023-11-19T06:34:52Z
2023-11-19T04:35:28Z,42.805,6.029,13.3033,4.60113,2470.684,2023-11-19T06:37:55Z
2023-11-19T04:38:31Z,42.805,6.029,13.3031,4.60105,2470.646,2023-11-19T06:40:58Z
2023-11-19T04:41:34Z,42.805,6.029,13.3026,4.60105,2470.646,2023-11-19T06:44:01Z
2023-11-19T04:44:37Z,42.805,6.029,13.3031,4.60106,2470.693,2023-11-19T06:47:04Z
2023-11-19T04:47:40Z,42.805,6.029,13.3043,4.60107,2470.693,2023-11-19T06:50:08Z
2023-11-19T04:50:43Z,42.805,6.029,13.3026,4.60103,2470.707,2023-11-19T06:53:11Z
2023-11-19T04:53:46Z,42.805,6.029,13.3028,4.60103,2470.684,2023-11-19T06:56:14Z
2023-11-19T04:56:49Z,42.805,6.029,13.3034,4.60103,2470.707,2023-11-19T06:59:17Z
2023-11-19T04:59:52Z,42.805,6.029,13.3035,4.60103,2470.67,2023-11-19T07:02:20Z
2023-11-19T05:02:55Z,42.805,6.029,13.3026,4.60102,2470.684,2023-11-19T07:05:23Z
2023-11-19T05:05:59Z,42.805,6.029,13.3031,4.60104,2470.67,2023-11-19T07:08:26Z
2023-11-19T05:09:02Z,42.805,6.029,13.3029,4.60106,2470.67,2023-11-19T07:11:29Z
2023-11-19T05:12:05Z,42.805,6.029,13.3029,4.60104,2470.67,2023-11-19T07:14:32Z
2023-11-19T05:15:08Z,42.805,6.029,13.3030,4.60104,2470.67,2023-11-19T07:17:35Z
2023-11-19T05:18:11Z,42.805,6.029,13.3031,4.60099,2470.67,2023-11-19T07:20:38Z
2023-11-19T05:21:14Z,42.805,6.029,13.3031,4.60102,2470.646,2023-11-19T07:23:41Z
2023-11-19T05:24:17Z,42.805,6.029,13.3030,4.60099,2470.661,2023-11-19T07:26:45Z
2023-11-19T05:27:20Z,42.805,6.029,13.3033,4.60099,2470.67,2023-11-19T07:29:48Z
2023-11-19T05:30:23Z,42.805,6.029,13.3025,4.60099,2470.646,2023-11-19T07:32:51Z
2023-11-19T05:33:26Z,42.805,6.029,13.3029,4.60099,2470.646,2023-11-19T07:35:54Z
2023-11-19T05:36:29Z,42.805,6.029,13.3032,4.60102,2470.646,2023-11-19T07:38:57Z
2023-11-19T05:39:33Z,42.805,6.029,13.3029,4.60101,2470.67,2023-11-19T07:42:00Z
2023-11-19T05:42:36Z,42.805,6.029,13.3028,4.60102,2470.67,2023-11-19T07:45:03Z
2023-11-19T05:45:39Z,42.805,6.029,13.3026,4.60102,2470.67,2023-11-19T07:48:06Z
2023-11-19T05:48:42Z,42.805,6.029,13.3030,4.60099,2470.67,2023-11-19T07:51:09Z
2023-11-19T05:51:45Z,42.805,6.029,13.3028,4.60099,2470.67,2023-11-19T07:54:12Z
2023-11-19T05:54:48Z,42.805,6.029,13.3030,4.60101,2470.684,2023-11-19T07:57:16Z
2023-11-19T05:57:51Z,42.805,6.029,13.3031,4.60100,2470.684,2023-11-19T08:00:19Z
2023-11-19T06:00:54Z,42.805,6.029,13.3026,4.60103,2470.646,2023-11-19T08:03:22Z
2023-11-19T06:03:57Z,42.805,6.029,13.3031,4.60101,2470.656,2023-11-19T08:06:25Z
2023-11-19T06:07:00Z,42.805,6.029,13.3030,4.60098,2470.679,2023-11-19T08:09:28Z
2023-11-19T06:10:03Z,42.805,6.029,13.3030,4.60099,2470.661,2023-11-19T08:12:31Z
2023-11-19T06:13:06Z,42.805,6.029,13.3031,4.60101,2470.67,2023-11-19T08:15:34Z
2023-11-19T06:16:10Z,42.805,6.029,13.3032,4.60100,2470.693,2023-11-19T08:18:37Z
2023-11-19T06:19:13Z,42.805,6.029,13.3030,4.60101,2470.67,2023-11-19T08:21:40Z
2023-11-19T06:22:16Z,42.805,6.029,13.3031,4.60099,2470.73,2023-11-19T08:24:43Z
2023-11-19T06:25:19Z,42.805,6.029,13.3030,4.60101,2470.693,2023-11-19T08:27:46Z
2023-11-19T06:28:22Z,42.805,6.029,13.3033,4.60102,2470.67,2023-11-19T08:30:49Z
2023-11-19T06:31:25Z,42.805,6.029,13.3030,4.60099,2470.693,2023-11-19T08:33:52Z
2023-11-19T06:34:28Z,42.805,6.029,13.3033,4.60101,2470.67,2023-11-19T08:36:56Z
2023-11-19T06:37:31Z,42.805,6.029,13.3032,4.60099,2470.693,2023-11-19T08:39:59Z
2023-11-19T06:40:34Z,42.805,6.029,13.3031,4.60099,2470.693,2023-11-19T08:43:02Z
2023-11-19T06:43:37Z,42.805,6.029,13.3033,4.60099,2470.717,2023-11-19T08:46:05Z
2023-11-19T06:46:40Z,42.805,6.029,13.3030,4.60101,2470.693,2023-11-19T08:49:08Z
2023-11-19T06:49:43Z,42.805,6.029,13.3031,4.60102,2470.661,2023-11-19T08:52:11Z
2023-11-19T06:52:46Z,42.805,6.029,13.3039,4.60110,2470.707,2023-11-19T08:55:14Z
2023-11-19T06:55:50Z,42.805,6.029,13.3031,4.60101,2470.693,2023-11-19T08:58:17Z
2023-11-19T06:58:53Z,42.805,6.029,13.3039,4.60101,2470.717,2023-11-19T09:01:20Z
2023-11-19T07:01:56Z,42.805,6.029,13.3029,4.60102,2470.684,2023-11-19T09:04:23Z
2023-11-19T07:04:59Z,42.805,6.029,13.3036,4.60101,2470.717,2023-11-19T09:07:26Z
2023-11-19T07:08:02Z,42.805,6.029,13.3033,4.60104,2470.717,2023-11-19T09:10:29Z
2023-11-19T07:11:05Z,42.805,6.029,13.3043,4.60107,2470.754,2023-11-19T09:13:32Z
2023-11-19T07:14:08Z,42.805,6.029,13.3043,4.60112,2470.693,2023-11-19T09:16:36Z
2023-11-19T07:17:11Z,42.805,6.029,13.3027,4.60099,2470.707,2023-11-19T09:19:39Z
2023-11-19T07:20:14Z,42.805,6.029,13.3031,4.60100,2470.73,2023-11-19T09:22:42Z
2023-11-19T07:23:17Z,42.805,6.029,13.3030,4.60099,2470.693,2023-11-19T09:25:45Z
2023-11-19T07:26:20Z,42.805,6.029,13.3031,4.60099,2470.73,2023-11-19T09:28:48Z
2023-11-19T07:29:23Z,42.805,6.029,13.3030,4.60104,2470.717,2023-11-19T09:31:51Z
2023-11-19T07:32:27Z,42.805,6.029,13.3031,4.60099,2470.717,2023-11-19T09:34:54Z
2023-11-19T07:35:30Z,42.805,6.029,13.3029,4.60102,2470.717,2023-11-19T09:37:57Z
2023-11-19T07:38:33Z,42.805,6.029,13.3031,4.60105,2470.74,2023-11-19T09:41:00Z
2023-11-19T07:41:36Z,42.805,6.029,13.3029,4.60104,2470.717,2023-11-19T09:44:04Z
2023-11-19T07:44:39Z,42.805,6.029,13.3031,4.60102,2470.717,2023-11-19T09:47:07Z
2023-11-19T07:47:42Z,42.805,6.029,13.3034,4.60101,2470.717,2023-11-19T09:50:10Z
2023-11-19T07:50:45Z,42.805,6.029,13.3035,4.60100,2470.74,2023-11-19T09:53:13Z
2023-11-19T07:53:48Z,42.805,6.029,13.3037,4.60106,2470.763,2023-11-19T09:56:16Z
2023-11-19T07:56:51Z,42.805,6.029,13.3057,4.60102,2470.763,2023-11-19T09:59:19Z
2023-11-19T14:38:08Z,42.805,6.029,13.3031,4.60102,2470.787,2023-11-19T16:40:36Z
2023-11-19T14:41:11Z,42.805,6.029,13.3029,4.60110,2470.8,2023-11-19T16:43:39Z
2023-11-19T14:44:15Z,42.805,6.029,13.3034,4.60107,2470.763,2023-11-19T16:46:42Z
2023-11-19T14:47:18Z,42.805,6.029,13.3032,4.60105,2470.763,2023-11-19T16:49:45Z
2023-11-19T14:50:21Z,42.805,6.029,13.3033,4.60110,2470.777,2023-11-19T16:52:48Z
2023-11-19T14:53:24Z,42.805,6.029,13.3034,4.60118,2470.787,2023-11-19T16:55:51Z
2023-11-19T14:56:27Z,42.805,6.029,13.3034,4.60112,2470.763,2023-11-19T16:58:54Z
2023-11-19T14:59:30Z,42.805,6.029,13.3034,4.60116,2470.74,2023-11-19T17:01:58Z
2023-11-19T15:02:33Z,42.805,6.029,13.3032,4.60114,2470.74,2023-11-19T17:05:01Z
2023-11-19T15:05:36Z,42.805,6.029,13.3036,4.60125,2470.777,2023-11-19T17:08:04Z
2023-11-19T15:08:39Z,42.805,6.029,13.3033,4.60116,2470.74,2023-11-19T17:11:07Z
2023-11-19T15:11:42Z,42.805,6.029,13.3039,4.60125,2470.717,2023-11-19T17:14:10Z
2023-11-19T15:14:45Z,42.805,6.029,13.3040,4.60122,2470.74,2023-11-19T17:17:13Z
2023-11-19T15:17:48Z,42.805,6.029,13.3041,4.60122,2470.763,2023-11-19T17:20:16Z
2023-11-19T15:20:52Z,42.805,6.029,13.3036,4.60131,2470.754,2023-11-19T17:23:19Z
2023-11-19T15:23:55Z,42.805,6.029,13.3034,4.60128,2470.74,2023-11-19T17:26:22Z
2023-11-19T15:26:58Z,42.805,6.029,13.3045,4.60140,2470.717,2023-11-19T17:29:25Z
2023-11-19T15:30:01Z,42.805,6.029,13.3036,4.60125,2470.717,2023-11-19T17:32:28Z
2023-11-19T15:33:04Z,42.805,6.029,13.3038,4.60123,2470.754,2023-11-19T17:35:31Z
2023-11-19T15:36:07Z,42.805,6.029,13.3040,4.60135,2470.74,2023-11-19T17:38:35Z
2023-11-19T15:39:10Z,42.805,6.029,13.3041,4.60137,2470.74,2023-11-19T17:41:38Z
2023-11-19T15:42:13Z,42.805,6.029,13.3046,4.60143,2470.717,2023-11-19T17:44:41Z
2023-11-19T15:45:16Z,42.805,6.029,13.3044,4.60147,2470.717,2023-11-19T17:47:44Z
2023-11-19T15:48:19Z,42.805,6.029,13.3045,4.60146,2470.726,2023-11-19T17:50:47Z
2023-11-19T15:51:22Z,42.805,6.029,13.3039,4.60140,2470.74,2023-11-19T17:53:50Z
2023-11-19T15:54:26Z,42.805,6.029,13.3051,4.60144,2470.763,2023-11-19T17:56:53Z
2023-11-19T15:57:29Z,42.805,6.029,13.3051,4.60155,2470.763,2023-11-19T17:59:56Z
2023-11-19T16:00:32Z,42.805,6.029,13.3043,4.60138,2470.717,2023-11-19T18:02:59Z
2023-11-19T16:03:35Z,42.805,6.029,13.3046,4.60144,2470.717,2023-11-19T18:06:02Z
2023-11-19T16:06:38Z,42.805,6.029,13.3044,4.60137,2470.74,2023-11-19T18:09:05Z
2023-11-19T16:09:41Z,42.805,6.029,13.3039,4.60139,2470.717,2023-11-19T18:12:09Z
2023-11-19T16:12:44Z,42.805,6.029,13.3045,4.60149,2470.74,2023-11-19T18:15:12Z
2023-11-19T16:15:47Z,42.805,6.029,13.3063,4.60152,2470.763,2023-11-19T18:18:15Z
2023-11-19T16:18:50Z,42.805,6.029,13.3040,4.60141,2470.707,2023-11-19T18:21:18Z
2023-11-19T16:21:53Z,42.805,6.029,13.3046,4.60135,2470.74,2023-11-19T18:24:21Z
2023-11-19T16:24:56Z,42.805,6.029,13.3040,4.60123,2470.754,2023-11-19T18:27:24Z
2023-11-19T16:27:59Z,42.805,6.029,13.3045,4.60137,2470.717,2023-11-19T18:30:27Z
2023-11-19T16:31:03Z,42.805,6.029,13.3039,4.60133,2470.707,2023-11-19T18:33:30Z
2023-11-19T16:34:06Z,42.805,6.029,13.3055,4.60160,2470.717,2023-11-19T18:36:33Z
2023-11-19T16:37:09Z,42.805,6.029,13.3044,4.60141,2470.717,2023-11-19T18:39:36Z
2023-11-19T16:40:12Z,42.805,6.029,13.3051,4.60138,2470.707,2023-11-19T18:42:39Z
2023-11-19T16:43:15Z,42.805,6.029,13.3043,4.60157,2470.73,2023-11-19T18:45:42Z
2023-11-19T16:46:18Z,42.805,6.029,13.3049,4.60157,2470.693,2023-11-19T18:48:46Z
2023-11-19T16:49:21Z,42.805,6.029,13.3036,4.60124,2470.717,2023-11-19T18:51:49Z
2023-11-19T16:52:24Z,42.805,6.029,13.3042,4.60122,2470.73,2023-11-19T18:54:52Z
2023-11-19T16:55:27Z,42.805,6.029,13.3039,4.60139,2470.693,2023-11-19T18:57:55Z
2023-11-19T16:58:30Z,42.805,6.029,13.3040,4.60132,2470.74,2023-11-19T19:00:58Z
2023-11-19T17:01:33Z,42.805,6.029,13.3046,4.60144,2470.707,2023-11-19T19:04:01Z
2023-11-19T17:04:36Z,42.805,6.029,13.3042,4.60138,2470.693,2023-11-19T19:07:04Z
2023-11-19T17:07:40Z,42.805,6.029,13.3053,4.60122,2470.73,2023-11-19T19:10:07Z
2023-11-19T17:10:43Z,42.805,6.029,13.3043,4.60139,2470.717,2023-11-19T19:13:10Z
2023-11-19T17:13:46Z,42.805,6.029,13.3043,4.60149,2470.717,2023-11-19T19:16:13Z
2023-11-19T17:16:49Z,42.805,6.029,13.3043,4.60134,2470.717,2023-11-19T19:19:16Z
2023-11-19T17:19:52Z,42.805,6.029,13.3036,4.60145,2470.707,2023-11-19T19:22:19Z
2023-11-19T17:22:55Z,42.805,6.029,13.3046,4.60153,2470.717,2023-11-19T19:25:23Z
2023-11-19T17:25:58Z,42.805,6.029,13.3049,4.60142,2470.693,2023-11-19T19:28:26Z
2023-11-19T17:29:01Z,42.805,6.029,13.3047,4.60144,2470.74,2023-11-19T19:31:29Z
2023-11-19T17:32:04Z,42.805,6.029,13.3041,4.60162,2470.693,2023-11-19T19:34:32Z
2023-11-19T17:35:07Z,42.805,6.029,13.3046,4.60132,2470.67,2023-11-19T19:37:35Z
2023-11-19T17:38:10Z,42.805,6.029,13.3039,4.60149,2470.73,2023-11-19T19:40:38Z
2023-11-19T17:41:14Z,42.805,6.029,13.3044,4.60129,2470.67,2023-11-19T19:43:41Z
2023-11-19T17:44:17Z,42.805,6.029,13.3051,4.60137,2470.707,2023-11-19T19:46:44Z
2023-11-19T17:47:20Z,42.805,6.029,13.3048,4.60129,2470.717,2023-11-19T19:49:47Z
2023-11-19T17:50:23Z,42.805,6.029,13.3048,4.60140,2470.73,2023-11-19T19:52:50Z
2023-11-19T17:53:26Z,42.805,6.029,13.3067,4.60145,2470.67,2023-11-19T19:55:53Z
2023-11-19T17:56:29Z,42.805,6.029,13.3048,4.60165,2470.707,2023-11-19T19:58:57Z
2023-11-19T17:59:32Z,42.805,6.029,13.3056,4.60150,2470.717,2023-11-19T20:02:00Z
2023-11-19T18:02:35Z,42.805,6.029,13.3042,4.60152,2470.693,2023-11-19T20:05:03Z
2023-11-19T18:05:38Z,42.805,6.029,13.3042,4.60140,2470.684,2023-11-19T20:08:06Z
2023-11-19T18:08:41Z,42.805,6.029,13.3042,4.60144,2470.656,2023-11-19T20:11:09Z
2023-11-19T18:11:44Z,42.805,6.029,13.3063,4.60149,2470.67,2023-11-19T20:14:12Z
2023-11-19T18:14:48Z,42.805,6.029,13.3063,4.60162,2470.67,2023-11-19T20:17:15Z
2023-11-19T18:17:51Z,42.805,6.029,13.3056,4.60157,2470.693,2023-11-19T20:20:18Z
2023-11-19T18:20:54Z,42.805,6.029,13.3054,4.60155,2470.67,2023-11-19T20:23:21Z
2023-11-19T18:23:57Z,42.805,6.029,13.3034,4.60137,2470.73,2023-11-19T20:26:24Z
2023-11-19T18:27:00Z,42.805,6.029,13.3041,4.60109,2470.67,2023-11-19T20:29:27Z
2023-11-19T18:30:03Z,42.805,6.029,13.3058,4.60139,2470.707,2023-11-19T20:32:31Z
2023-11-19T18:33:06Z,42.805,6.029,13.3053,4.60140,2470.633,2023-11-19T20:35:34Z
2023-11-19T18:36:09Z,42.805,6.029,13.3052,4.60130,2470.679,2023-11-19T20:38:37Z
2023-11-19T18:39:12Z,42.805,6.029,13.3041,4.60119,2470.707,2023-11-19T20:41:40Z
2023-11-19T18:42:15Z,42.805,6.029,13.3037,4.60106,2470.693,2023-11-19T20:44:43Z
2023-11-19T18:45:18Z,42.805,6.029,13.3039,4.60110,2470.707,2023-11-19T20:47:46Z
2023-11-19T18:48:21Z,42.805,6.029,13.3030,4.60102,2470.693,2023-11-19T20:50:49Z
2023-11-19T18:51:25Z,42.805,6.029,13.3037,4.60107,2470.646,2023-11-19T20:53:52Z
2023-11-19T18:54:28Z,42.805,6.029,13.3039,4.60099,2470.693,2023-11-19T20:56:55Z
2023-11-19T18:57:31Z,42.805,6.029,13.3036,4.60099,2470.684,2023-11-19T20:59:58Z
2023-11-19T19:00:34Z,42.805,6.029,13.3044,4.60105,2470.679,2023-11-19T21:03:01Z
2023-11-19T19:03:37Z,42.805,6.029,13.3045,4.60103,2470.646,2023-11-19T21:06:04Z
2023-11-19T19:06:40Z,42.805,6.029,13.3029,4.60106,2470.693,2023-11-19T21:09:08Z
2023-11-19T19:09:43Z,42.805,6.029,13.3034,4.60101,2470.693,2023-11-19T21:12:11Z
2023-11-19T19:12:46Z,42.805,6.029,13.3036,4.60100,2470.67,2023-11-19T21:15:14Z
2023-11-19T19:15:49Z,42.805,6.029,13.3030,4.60104,2470.707,2023-11-19T21:18:17Z
2023-11-19T19:18:52Z,42.805,6.029,13.3031,4.60099,2470.67,2023-11-19T21:21:20Z
2023-11-19T19:21:55Z,42.805,6.029,13.3034,4.60103,2470.67,2023-11-19T21:24:23Z
2023-11-19T19:24:58Z,42.805,6.029,13.3029,4.60102,2470.67,2023-11-19T21:27:26Z
2023-11-19T19:28:02Z,42.805,6.029,13.3028,4.60099,2470.661,2023-11-19T21:30:29Z
2023-11-19T19:31:03Z,42.805,6.029,13.3029,4.60098,2470.693,2023-11-19T21:33:31Z
2023-11-19T19:34:06Z,42.805,6.029,13.3031,4.60097,2470.684,2023-11-19T21:36:34Z
2023-11-19T19:37:09Z,42.805,6.029,13.3031,4.60101,2470.661,2023-11-19T21:39:37Z
2023-11-19T19:40:12Z,42.805,6.029,13.3030,4.60099,2470.693,2023-11-19T21:42:40Z
2023-11-19T19:43:16Z,42.805,6.029,13.3032,4.60101,2470.693,2023-11-19T21:45:43Z
2023-11-19T19:46:19Z,42.805,6.029,13.3031,4.60098,2470.693,2023-11-19T21:48:46Z
2023-11-19T19:49:22Z,42.805,6.029,13.3034,4.60099,2470.693,2023-11-19T21:51:49Z
2023-11-19T19:52:25Z,42.805,6.029,13.3028,4.60099,2470.67,2023-11-19T21:54:52Z
2023-11-19T19:55:28Z,42.805,6.029,13.3031,4.60101,2470.684,2023-11-19T21:57:55Z
2023-11-19T19:58:31Z,42.805,6.029,13.3030,4.60098,2470.67,2023-11-19T22:00:59Z
2023-11-19T20:01:34Z,42.805,6.029,13.3031,4.60097,2470.693,2023-11-19T22:04:02Z
2023-11-19T20:04:37Z,42.805,6.029,13.3035,4.60100,2470.693,2023-11-19T22:07:05Z
2023-11-19T20:07:40Z,42.805,6.029,13.3031,4.60099,2470.73,2023-11-19T22:10:08Z
2023-11-19T20:10:43Z,42.805,6.029,13.3030,4.60097,2470.707,2023-11-19T22:13:11Z
2023-11-19T20:13:46Z,42.805,6.029,13.3031,4.60099,2470.67,2023-11-19T22:16:14Z
2023-11-19T20:16:49Z,42.805,6.029,13.3028,4.60098,2470.67,2023-11-19T22:19:17Z
2023-11-19T20:19:53Z,42.805,6.029,13.3029,4.60098,2470.707,2023-11-19T22:22:20Z
2023-11-19T20:22:56Z,42.805,6.029,13.3030,4.60099,2470.693,2023-11-19T22:25:23Z
2023-11-19T20:25:59Z,42.805,6.029,13.3028,4.60099,2470.707,2023-11-19T22:28:26Z
2023-11-19T20:29:02Z,42.805,6.029,13.3031,4.60101,2470.67,2023-11-19T22:31:29Z
2023-11-19T20:32:05Z,42.805,6.029,13.3029,4.60100,2470.693,2023-11-19T22:34:33Z
2023-11-19T20:35:08Z,42.805,6.029,13.3031,4.60104,2470.67,2023-11-19T22:37:36Z
2023-11-19T20:38:11Z,42.805,6.029,13.3027,4.60099,2470.73,2023-11-19T22:40:39Z
2023-11-19T20:41:14Z,42.805,6.029,13.3031,4.60099,2470.754,2023-11-19T22:43:42Z
2023-11-19T20:44:17Z,42.805,6.029,13.3028,4.60098,2470.693,2023-11-19T22:46:45Z
2023-11-19T20:47:20Z,42.805,6.029,13.3028,4.60100,2470.707,2023-11-19T22:49:48Z
2023-11-19T20:50:24Z,42.805,6.029,13.3031,4.60098,2470.693,2023-11-19T22:52:51Z
2023-11-19T20:53:27Z,42.805,6.029,13.3028,4.60098,2470.693,2023-11-19T22:55:54Z
2023-11-19T20:56:30Z,42.805,6.029,13.3029,4.60099,2470.717,2023-11-19T22:58:57Z
2023-11-19T20:59:33Z,42.805,6.029,13.3031,4.60098,2470.693,2023-11-19T23:02:00Z
2023-11-19T21:02:36Z,42.805,6.029,13.3031,4.60099,2470.717,2023-11-19T23:05:03Z
2023-11-19T21:05:39Z,42.805,6.029,13.3028,4.60099,2470.693,2023-11-19T23:08:06Z
2023-11-19T21:08:42Z,42.805,6.029,13.3030,4.60098,2470.717,2023-11-19T23:11:10Z
2023-11-19T21:11:45Z,42.805,6.029,13.3030,4.60102,2470.707,2023-11-19T23:14:13Z
2023-11-19T21:14:48Z,42.805,6.029,13.3028,4.60097,2470.73,2023-11-19T23:17:16Z
2023-11-19T21:17:51Z,42.805,6.029,13.3032,4.60097,2470.717,2023-11-19T23:20:19Z
2023-11-19T21:20:54Z,42.805,6.029,13.3031,4.60097,2470.679,2023-11-19T23:23:22Z
2023-11-19T21:23:57Z,42.805,6.029,13.3030,4.60098,2470.679,2023-11-19T23:26:25Z
2023-11-19T21:27:01Z,42.805,6.029,13.3034,4.60102,2470.717,2023-11-19T23:29:28Z
2023-11-19T21:30:04Z,42.805,6.029,13.3029,4.60099,2470.717,2023-11-19T23:32:31Z
2023-11-19T21:33:07Z,42.805,6.029,13.3028,4.60102,2470.73,2023-11-19T23:35:34Z
2023-11-19T21:36:10Z,42.805,6.029,13.3030,4.60099,2470.74,2023-11-19T23:38:37Z
2023-11-19T21:39:13Z,42.805,6.029,13.3028,4.60098,2470.707,2023-11-19T23:41:40Z